Boulder City, NV

7:59 AM PDT on June 22, 2017 (GMT -0700)
Boulder City

Weather History for KBVU - July, 2013

Change the Weather History Date:

Monday, July 29, 2013

  Actual Average (KLAS) Record (KLAS)
Temperature  
Mean Temperature 86 °F -  
Max Temperature 102 °F 105 °F 115 °F (1995)
Min Temperature 69 °F 77 °F 64 °F (1984)
Cooling Degree Days 20    
Growing Degree Days 36 (Base 50)    
Moisture  
Dew Point 46 °F    
Average Humidity 30    
Maximum Humidity 64    
Minimum Humidity 9    
Precipitation  
Precipitation 0.00 in - - ()
Sea Level Pressure  
Sea Level Pressure 29.92 in    
Wind  
Wind Speed 6 mph (South)    
Max Wind Speed 20 mph    
Max Gust Speed 29 mph    
Visibility 10 miles    
Events      
Averages and records for this station are not official NWS values.
T = Trace of Precipitation, MM = Missing Value Source: NWS Daily Summary

Daily Weather History Graph

Daily Weather History Graph

Search for Another Location

Airport or City:

Trip Planner

Search our weather history database for the weather conditions in past years. The results will help you decide how hot, cold, wet, or windy it might be!

Date:

Astronomy

Jul. 29, 2013 Rise Set
Actual Time 5:44 AM PDT 7:46 PM PDT
Civil Twilight 5:16 AM PDT 8:14 PM PDT
Nautical Twilight 4:41 AM PDT 8:49 PM PDT
Astronomical Twilight 4:04 AM PDT 9:26 PM PDT
Moon No Moon Rise 1:13 PM PDT (7/29)
Length of Visible Light 14h 58m
Length of Day
14h 01m
Waning Gibbous, 50% of the Moon is Illuminated
Jul 29
Waning Gibbous
Aug 6
New
Aug 14
First Quarter
Aug 20
Full
Aug 28
Last Quarter

Hourly Weather History & Observations

Time (PDT) Temp. Heat Index Dew Point Humidity Pressure Visibility Wind Dir Wind Speed Gust Speed Precip Events Conditions
12:15 AM 75.2 °F - 57.2 °F 53% 29.87 in 10.0 mi North 6.9 mph - N/A   Clear
12:55 AM 75.2 °F - 55.4 °F 50% 29.88 in 10.0 mi North 10.4 mph - N/A   Clear
1:15 AM 75.2 °F - 55.4 °F 50% 29.88 in 10.0 mi North 10.4 mph - N/A   Clear
1:55 AM 77.0 °F - 55.4 °F 47% 29.88 in 10.0 mi North 12.7 mph - N/A   Clear
2:15 AM 77.0 °F - 55.4 °F 47% 29.88 in 10.0 mi NNW 11.5 mph - N/A   Clear
2:55 AM 77.0 °F - 55.4 °F 47% 29.88 in 10.0 mi NNW 5.8 mph - N/A   Clear
3:15 AM 77.0 °F - 53.6 °F 44% 29.88 in 10.0 mi Calm Calm - N/A   Scattered Clouds
3:35 AM 77.0 °F - 55.4 °F 47% 29.89 in 10.0 mi WNW 6.9 mph - N/A   Partly Cloudy
3:55 AM 75.2 °F - 53.6 °F 47% 29.89 in 10.0 mi NW 5.8 mph - N/A   Clear
4:15 AM 75.2 °F - 55.4 °F 50% 29.89 in 10.0 mi WSW 6.9 mph - N/A   Clear
4:35 AM 73.4 °F - 57.2 °F 57% 29.89 in 10.0 mi West 6.9 mph - N/A   Clear
4:55 AM 71.6 °F - 57.2 °F 60% 29.90 in 10.0 mi WSW 3.5 mph - N/A   Clear
5:15 AM 71.6 °F - 57.2 °F 60% 29.90 in 10.0 mi Calm Calm - N/A   Clear
5:35 AM 69.8 °F - 57.2 °F 64% 29.91 in 10.0 mi Calm Calm - N/A   Clear
5:55 AM 69.8 °F - 57.2 °F 64% 29.91 in 10.0 mi Calm Calm - N/A   Clear
6:15 AM 71.6 °F - 59.0 °F 64% 29.92 in 10.0 mi Calm Calm - N/A   Clear
6:35 AM 73.4 °F - 57.2 °F 57% 29.92 in 10.0 mi Calm Calm - N/A   Clear
6:55 AM 75.2 °F - 57.2 °F 53% 29.92 in 10.0 mi Calm Calm - N/A   Clear
7:15 AM 77.0 °F - 57.2 °F 50% 29.93 in 10.0 mi Calm Calm - N/A   Clear
7:35 AM 77.0 °F - 57.2 °F 50% 29.94 in 10.0 mi Calm Calm - N/A   Clear
7:55 AM 77.0 °F - 59.0 °F 54% 29.94 in 10.0 mi Calm Calm - N/A   Clear
8:15 AM 77.0 °F - 59.0 °F 54% 29.95 in 10.0 mi Calm Calm - N/A   Clear
8:35 AM 80.6 °F 80.8 °F 57.2 °F 45% 29.95 in 10.0 mi Calm Calm - N/A   Clear
8:55 AM 82.4 °F 82.0 °F 57.2 °F 42% 29.95 in 10.0 mi Calm Calm - N/A   Clear
9:15 AM 84.2 °F 83.5 °F 57.2 °F 40% 29.95 in 10.0 mi Calm Calm - N/A   Clear
9:35 AM 84.2 °F 83.0 °F 55.4 °F 37% 29.96 in 8.0 mi Calm Calm - N/A   Clear
9:55 AM 86.0 °F 84.2 °F 53.6 °F 33% 29.96 in 10.0 mi ENE 4.6 mph - N/A   Clear
10:15 AM 87.8 °F 85.7 °F 53.6 °F 31% 29.96 in 10.0 mi ENE 6.9 mph - N/A   Clear
10:35 AM 87.8 °F 85.7 °F 53.6 °F 31% 29.96 in 10.0 mi Calm Calm - N/A   Clear
10:55 AM 89.6 °F 87.3 °F 53.6 °F 29% 29.96 in 10.0 mi NNE 3.5 mph - N/A   Clear
11:15 AM 91.4 °F - 51.8 °F 26% 29.96 in 10.0 mi Calm Calm - N/A   Clear
11:35 AM 91.4 °F - 51.8 °F 26% 29.95 in 10.0 mi NNE 4.6 mph - N/A   Clear
11:55 AM 93.2 °F - 50.0 °F 23% 29.95 in 10.0 mi East 9.2 mph - N/A   Clear
12:15 PM 93.2 °F - 46.4 °F 20% 29.95 in 10.0 mi Calm Calm - N/A   Clear
12:35 PM 95.0 °F - 48.2 °F 20% 29.95 in 10.0 mi South 5.8 mph - N/A   Clear
12:55 PM 96.8 °F - 48.2 °F 19% 29.94 in 10.0 mi South 8.1 mph - N/A   Clear
1:15 PM 95.0 °F - 46.4 °F 19% 29.94 in 10.0 mi Calm Calm - N/A   Clear
1:35 PM 96.8 °F - 44.6 °F 17% 29.93 in 10.0 mi SE 4.6 mph - N/A   Clear
1:55 PM 98.6 °F - 41.0 °F 14% 29.92 in 10.0 mi SSW 15.0 mph 19.6 mph N/A   Partly Cloudy
2:15 PM 98.6 °F - 41.0 °F 14% 29.92 in 10.0 mi South 6.9 mph 25.3 mph N/A   Clear
2:35 PM 100.4 °F - 37.4 °F 11% 29.92 in 10.0 mi South 11.5 mph 21.9 mph N/A   Clear
2:55 PM 100.4 °F - 39.2 °F 12% 29.91 in 5.0 mi SSE 6.9 mph 19.6 mph N/A   Haze
3:15 PM 100.4 °F - 39.2 °F 12% 29.91 in 10.0 mi SW 6.9 mph 19.6 mph N/A   Clear
3:35 PM 100.4 °F - 39.2 °F 12% 29.90 in 6.0 mi SSE 15.0 mph 18.4 mph N/A   Haze
3:55 PM 102.2 °F - 37.4 °F 11% 29.89 in 10.0 mi SSE 13.8 mph 20.7 mph N/A   Clear
4:15 PM 100.4 °F - 35.6 °F 11% 29.89 in 10.0 mi South 13.8 mph 26.5 mph N/A   Clear
4:35 PM 102.2 °F - 33.8 °F 9% 29.89 in 10.0 mi SSE 16.1 mph 28.8 mph N/A   Clear
4:55 PM 100.4 °F - 32.0 °F 9% 29.89 in 10.0 mi SSE 16.1 mph 27.6 mph N/A   Clear
5:15 PM 100.4 °F - 32.0 °F 9% 29.88 in 10.0 mi South 17.3 mph 24.2 mph N/A   Clear
5:35 PM 100.4 °F - 32.0 °F 9% 29.88 in 10.0 mi South 19.6 mph 24.2 mph N/A   Clear
5:55 PM 100.4 °F - 32.0 °F 9% 29.88 in 10.0 mi South 8.1 mph 20.7 mph N/A   Clear
6:15 PM 100.4 °F - 35.6 °F 11% 29.88 in 10.0 mi SW 16.1 mph 21.9 mph N/A   Clear
6:35 PM 100.4 °F - 33.8 °F 10% 29.88 in 10.0 mi WSW 4.6 mph - N/A   Clear
6:55 PM 98.6 °F - 37.4 °F 12% 29.88 in 10.0 mi SW 10.4 mph 16.1 mph N/A   Clear
7:15 PM 98.6 °F - 35.6 °F 11% 29.89 in 10.0 mi South 8.1 mph 17.3 mph N/A   Clear
7:35 PM 96.8 °F - 33.8 °F 11% 29.90 in 10.0 mi South 4.6 mph - N/A   Clear
7:55 PM 95.0 °F - 33.8 °F 12% 29.90 in 10.0 mi SSW 5.8 mph - N/A   Clear
8:15 PM 93.2 °F - 32.0 °F 11% 29.91 in 10.0 mi SSW 6.9 mph - N/A   Clear
8:35 PM 93.2 °F - 32.0 °F 11% 29.92 in 10.0 mi South 8.1 mph - N/A   Clear
8:55 PM 93.2 °F - 32.0 °F 11% 29.93 in 10.0 mi South 5.8 mph - N/A   Clear
9:15 PM 91.4 °F - 33.8 °F 13% 29.94 in 10.0 mi SSE 4.6 mph - N/A   Clear
9:35 PM 91.4 °F - 33.8 °F 13% 29.95 in 10.0 mi SE 3.5 mph - N/A   Clear
9:55 PM 87.8 °F - 37.4 °F 17% 29.95 in 10.0 mi Calm Calm - N/A   Clear
10:15 PM 89.6 °F - 35.6 °F 15% 29.96 in 10.0 mi Calm Calm - N/A   Clear
10:35 PM 84.2 °F - 42.8 °F 23% 29.96 in 10.0 mi Calm Calm - N/A   Clear
10:55 PM 82.4 °F - 44.6 °F 26% 29.97 in 10.0 mi Calm Calm - N/A   Clear
11:15 PM 84.2 °F - 41.0 °F 22% 29.97 in 10.0 mi Calm Calm - N/A   Clear
11:35 PM 84.2 °F - 39.2 °F 20% 29.97 in 10.0 mi Calm Calm - N/A   Clear
11:55 PM 84.2 °F - 37.4 °F 19% 29.98 in 10.0 mi Calm Calm - N/A   Clear